Home   Weather   Jeddah   Past weeks
Flag for Saudi Arabia

Past Weather in Jeddah, Saudi Arabia — Yesterday and Last 2 Weeks

Now
93 °F

Sunny.


Feels Like: 105 °F
Forecast: 92 / 81 °F
Wind: 7 mph from West

Location: Jeddah King Abdul Aziz International Airport

Current Time: Oct 21, 2019 at 1:35:35 pm

Latest Report: Oct 21, 2019 at 12:00 pm


Visibility: 10 mi

Pressure: 29.83 "Hg

Humidity: 56%

Dew Point: 75 °F

Location of JeddahLocation

Past Weather in Jeddah — Graph

°F

Jeddah Temperature Yesterday

Maximum temperature yesterday: 93 °F (at 11:00 am)
Minimum temperature yesterday: 82 °F (at 4:00 am)
Average temperature yesterday: 88 °F

High & Low Weather Summary for the Past Weeks

 TemperatureHumidityPressure
High102 °F (Oct 17, 11:00 am)94% (Oct 21, 6:11 am)29.95 "Hg (Oct 21, 6:11 am)
Low79 °F (Oct 17, 6:00 am)14% (Oct 7, 8:10 pm)29.68 "Hg (Oct 7, 2:00 am)
Average90 °F59%29.82 "Hg
* Reported Oct 6 12:00 pm — Oct 21 12:00 pm, Jeddah. Weather by CustomWeather, © 2019

Note: Actual official high and low records may vary slightly from our data, if they occured in-between our weather recording intervals... More about our weather records

Advertising

Jeddah Weather History for the Previous 24 Hours

Scroll right to see more
 ConditionsComfort  
Time TempWeatherWind HumidityBarometerVisibility
12:00 pm
Mon, Oct 21
93 °FSunny.7 mph56%29.83 "Hg10 mi
11:00 am91 °FSunny.5 mph63%29.86 "Hg10 mi
10:00 am90 °FPassing clouds.5 mph67%29.89 "HgN/A
9:00 am86 °FPassing clouds.3 mph79%29.89 "HgN/A
8:00 am84 °FClear.5 mph84%29.86 "Hg5 mi
7:15 am81 °FFog.No wind89%29.86 "Hg3 mi
7:00 am79 °FFog.No wind94%29.83 "Hg1 mi
6:27 am79 °FFog.No wind94%29.83 "Hg1 mi
6:11 am79 °FFog.No wind94%29.83 "Hg2 mi
5:00 am79 °FClear.5 mph89%29.80 "Hg10 mi
4:00 am81 °FClear.5 mph84%29.80 "Hg10 mi
3:00 am81 °FClear.3 mph84%29.83 "Hg10 mi
2:00 am82 °FClear.3 mph79%29.83 "Hg10 mi
1:00 am84 °FClear.3 mph79%29.83 "Hg10 mi
12:00 am84 °FClear.No wind79%29.83 "Hg10 mi
11:00 pm
Sun, Oct 20
86 °FClear.5 mph75%29.86 "Hg10 mi
10:00 pm88 °FClear.5 mph70%29.86 "Hg10 mi
9:00 pm88 °FClear.5 mph70%29.86 "Hg10 mi
8:00 pm88 °FClear.7 mph70%29.86 "Hg10 mi
7:00 pm88 °FClear.7 mph70%29.83 "Hg10 mi
6:00 pm88 °FClear.8 mph70%29.80 "Hg10 mi
5:00 pm90 °FPassing clouds.12 mph63%29.80 "HgN/A
4:00 pm91 °FPassing clouds.14 mph56%29.80 "HgN/A
3:00 pm93 °FPassing clouds.14 mph53%29.80 "HgN/A
2:00 pm91 °FSunny.16 mph59%29.83 "Hg10 mi
1:00 pm91 °FSunny.14 mph59%29.86 "Hg10 mi
Weather by CustomWeather, © 2019

See weather overview